Temperature
3 3 3 3 2 2 2 2 1 1 2 2 2 3 3 3 3 3 3 3 3 3 3 4 4 4 4 4 5 5 5 6 6 6 6 6 7 7
3 3 2 2 2 2 2 1 1 1 1 1 2 2 2 2 2 2 2 2 3 3 3 3 4 4 4 4 4 4 5 5 5 6 6 6 6 6
2 2 2 2 2 1 1 1 1 1 1 1 1 1 1 1 2 2 2 2 2 3 3 3 3 4 4 4 4 4 4 5 5 5 5 5 6 6
2 2 2 1 1 1 1 1 1 0 0 0 1 1 1 1 1 1 2 2 2 2 2 3 3 3 4 4 4 4 4 4 5 5 5 5 5 5
2 1 1 1 1 1 0 0 0 0 0 -0 0 0 0 0 0 1 1 1 2 2 2 2 2 3 3 4 4 4 4 4 4 4 5 5 5 5
1 1 1 0 0 0 -0 -0 -0 -0 -0 -0 -0 -0 -0 -0 -0 0 0 1 1 1 2 2 2 3 3 3 3 3 4 4 4 4 4 4 4 5
1 1 0 0 -0 -0 -0 -0 -1 -1 -1 -1 -1 -1 -1 -1 -1 -0 -0 -0 0 1 1 1 2 2 2 3 3 3 3 3 4 4 4 4 4 4
0 -0 -0 -0 -0 -1 -1 -1 -1 -1 -1 -1 -1 -1 -1 -1 -1 -1 -1 -1 -0 0 0 1 1 1 2 2 2 2 3 3 3 3 4 4 4 3
-0 -1 -1 -1 -1 -1 -1 -1 -1 -1 -1 -1 -1 -1 -2 -1 -1 -1 -1 -1 -1 -0 -0 -0 0 1 1 1 1 2 2 2 2 3 3 3 3 3
-1 -1 -1 -1 -1 -1 -1 -1 -1 -1 -1 -2 -2 -2 -2 -2 -2 -1 -1 -1 -1 -0 -0 -1 -0 0 0 1 1 1 1 1 2 2 2 2 2 2
-1 -1 -2 -2 -2 -2 -2 -2 -2 -2 -2 -2 -2 -2 -2 -2 -2 -1 -1 -1 -1 -1 -1 -1 -1 -0 0 0 0 0 1 1 1 1 1 2 2 2
-2 -2 -2 -2 -2 -2 -2 -2 -2 -2 -2 -2 -2 -2 -2 -1 -1 -1 -1 -1 -1 -1 -1 -1 -1 -1 -1 -0 -0 0 0 0 1 1 1 1 1 1
-2 -2 -2 -2 -2 -2 -2 -2 -2 -2 -2 -2 -2 -2 -1 -1 -1 -1 -1 -1 -1 -1 -1 -1 -1 -1 -1 -1 -1 -1 -0 0 0 1 1 1 1 1
-2 -2 -2 -2 -2 -2 -2 -2 -2 -2 -2 -2 -2 -2 -2 -2 -1 -1 -1 -1 -1 -1 -1 -1 -1 -1 -1 -1 -1 -1 -1 -0 -0 0 0 0 0 0
-2 -2 -2 -2 -2 -2 -2 -2 -2 -2 -3 -3 -3 -3 -3 -2 -2 -2 -1 -1 -1 -1 -1 -1 -1 -1 -1 -1 -1 -1 -1 -1 -1 -0 -0 0 0 0
-3 -3 -3 -2 -2 -3 -3 -3 -3 -3 -3 -3 -3 -3 -3 -3 -2 -2 -2 -1 -1 -1 -1 -1 -1 -1 -1 -1 -1 -1 -1 -1 -1 -1 -1 -0 -0 0
-3 -3 -3 -3 -3 -3 -3 -3 -3 -3 -3 -3 -3 -3 -3 -3 -3 -2 -2 -2 -2 -2 -2 -2 -2 -2 -2 -1 -2 -2 -2 -1 -1 -1 -1 -1 -1 -0
-3 -3 -3 -3 -3 -4 -4 -4 -4 -3 -3 -3 -3 -3 -3 -3 -3 -3 -2 -2 -2 -2 -2 -2 -2 -2 -2 -2 -2 -2 -2 -1 -1 -1 -1 -1 -1 -1
-3 -4 -4 -4 -4 -4 -4 -4 -4 -4 -4 -4 -3 -3 -3 -3 -3 -3 -3 -2 -2 -2 -2 -2 -2 -2 -2 -3 -3 -2 -2 -2 -1 -1 -1 -1 -1 -1
-4 -4 -4 -4 -4 -4 -4 -4 -4 -4 -4 -4 -4 -3 -3 -3 -3 -3 -3 -3 -3 -3 -3 -2 -2 -2 -2 -2 -3 -3 -2 -2 -2 -2 -1 -1 -1 -1
-4 -4 -4 -4 -4 -4 -4 -4 -4 -4 -4 -4 -4 -3 -3 -3 -3 -3 -3 -3 -3 -3 -3 -3 -3 -2 -2 -2 -2 -2 -2 -2 -2 -2 -1 -1 -1 -1
-4 -4 -4 -4 -4 -4 -4 -4 -4 -4 -4 -4 -4 -4 -4 -3 -3 -3 -3 -3 -3 -3 -3 -3 -3 -3 -2 -2 -2 -3 -2 -2 -2 -2 -2 -1 -1 -2
-5 -4 -4 -4 -4 -4 -4 -4 -4 -4 -4 -4 -4 -4 -4 -3 -3 -3 -3 -3 -3 -3 -3 -3 -3 -3 -3 -2 -3 -3 -3 -2 -2 -2 -2 -2 -2 -1
Wind_Speed
7 8 7 7 6 6 7 7 9 13 13 9 6 7 9 10 15 14 13 18 21 22 21 21 21 22 22 21 20 20 20 20 18 17 17 18 18 17
6 8 8 7 6 6 7 7 8 10 13 10 9 9 10 13 18 14 14 21 21 22 22 21 21 21 21 20 19 19 19 18 16 16 16 16 14 13
8 9 10 9 7 6 6 7 8 8 13 13 10 9 10 12 13 12 13 12 13 19 22 22 22 21 20 19 18 18 17 17 15 14 13 13 12 11
9 9 10 9 9 7 7 8 8 8 10 15 12 10 11 11 11 11 11 12 11 17 20 21 20 19 18 18 16 15 15 14 12 12 12 12 11 10
9 9 10 9 9 7 8 8 8 9 8 11 13 10 10 9 10 11 10 9 11 13 15 16 16 15 15 14 14 14 13 12 11 11 11 10 10 9
9 9 9 9 9 9 8 8 8 8 8 10 11 10 10 9 8 9 9 8 9 10 11 11 10 11 11 10 11 10 10 9 9 9 9 8 8 7
9 9 9 11 13 11 10 8 8 8 9 9 10 10 10 9 8 8 10 9 9 7 6 6 5 4 5 7 6 6 5 5 6 6 6 5 5 5
10 9 10 10 13 16 17 16 14 11 10 10 10 10 11 10 9 9 9 9 8 5 4 6 4 3 3 2 1 2 2 3 3 4 4 4 5 5
9 9 10 10 13 10 12 15 14 17 17 12 11 11 11 10 9 10 9 9 9 7 5 5 3 3 3 3 1 1 1 1 2 3 4 4 4 4
9 9 9 9 10 10 9 9 9 10 12 10 9 10 10 10 10 10 9 8 8 6 4 4 4 3 4 3 3 2 2 1 2 3 4 5 4 4
9 9 9 9 13 15 10 10 10 10 12 14 14 14 15 15 12 8 7 6 6 5 3 2 3 3 3 3 3 3 2 1 1 3 4 4 4 3
8 8 11 11 13 14 9 8 10 10 9 10 10 11 10 10 12 8 6 6 5 4 3 2 3 2 2 2 2 2 2 2 1 2 3 3 3 2
8 7 7 13 14 14 12 8 10 11 8 8 7 7 7 6 5 5 4 4 4 4 3 2 2 1 1 1 3 2 2 1 1 2 3 3 4 3
7 7 8 13 14 14 11 10 12 11 6 5 6 6 6 5 5 4 3 3 2 3 3 2 1 1 0 1 1 2 3 3 3 2 2 4 4 4
7 10 13 14 13 10 10 11 9 5 4 5 5 5 5 5 4 3 3 3 4 3 3 2 1 1 1 1 1 1 2 3 3 2 2 3 2 2
7 9 13 12 9 9 9 7 5 4 4 4 5 5 5 4 4 3 2 3 3 4 5 5 3 3 3 2 2 2 2 1 2 2 3 3 2 2
8 6 5 5 5 5 5 4 4 4 4 4 4 4 4 4 4 3 3 2 2 3 4 4 5 5 5 3 3 2 2 2 2 2 3 3 3 2
8 5 5 5 5 5 5 5 4 4 4 4 4 4 4 3 4 4 3 3 3 3 3 2 2 3 4 5 6 3 3 3 2 3 2 3 3 3
5 4 5 5 5 5 4 4 4 4 3 3 3 3 3 3 3 3 3 3 3 3 3 3 2 2 4 4 5 6 3 2 3 3 3 3 2 2
4 5 5 5 5 4 4 4 3 3 3 3 3 3 2 2 3 3 3 3 3 3 3 3 3 2 3 2 2 3 6 2 2 3 3 3 3 3
5 5 5 5 5 4 4 3 3 3 3 3 3 3 2 2 2 2 3 4 3 3 3 3 3 3 2 2 4 4 5 7 5 2 2 2 3 3
5 5 5 5 5 4 4 3 2 2 3 2 2 2 2 2 2 2 2 2 2 3 3 3 3 3 3 5 6 5 5 6 8 10 9 5 2 2
5 5 5 5 4 4 3 3 3 2 2 2 2 2 2 2 2 2 2 2 2 3 3 3 4 4 4 5 5 5 6 5 5 6 7 10 10 8
Wind_Direction
264 265 267 268 264 264 264 264 276 291 295 292 292 288 294 290 290 291 287 291 290 284 281 281 279 276 275 273 270 268 269 267 262 256 253 252 252 252
270 271 271 272 270 265 264 264 262 271 284 290 292 295 297 296 294 292 289 291 289 287 283 281 280 276 272 268 267 268 267 263 255 254 253 251 253 252
277 275 274 275 276 273 270 269 267 268 279 289 290 295 292 294 297 294 289 286 287 287 284 281 279 274 270 266 264 264 264 261 252 249 250 249 249 252
280 280 280 281 278 277 276 273 271 269 276 288 294 297 292 294 296 297 299 298 293 291 287 283 280 276 268 262 260 259 259 254 246 243 244 244 242 245
281 281 282 283 281 280 278 277 277 279 277 283 290 295 295 298 302 300 299 300 301 299 292 287 285 281 272 264 259 255 252 246 240 238 238 236 234 236
285 282 282 281 281 283 282 280 280 281 280 282 287 292 294 296 298 302 306 308 310 310 306 300 294 289 283 277 266 254 240 233 233 231 230 228 227 223
287 284 282 283 284 286 286 283 282 283 284 284 285 291 295 302 303 302 304 308 309 306 312 317 314 302 294 286 272 240 222 214 217 217 208 197 184 183
291 291 289 287 290 291 290 289 286 284 285 283 285 288 293 297 302 303 304 306 303 308 316 321 328 328 321 301 266 204 205 204 193 184 171 164 157 159
296 295 294 293 295 292 294 297 294 289 284 281 282 286 290 295 297 298 297 300 297 299 307 317 339 340 337 336 2 101 119 156 158 149 140 141 148 152
297 294 292 294 296 298 298 298 293 293 290 288 282 284 288 289 285 285 287 293 294 297 294 303 331 342 345 9 33 57 65 72 107 118 127 128 132 144
301 298 297 294 298 305 304 300 300 299 299 297 296 296 296 295 293 293 292 295 299 305 309 290 308 342 360 5 22 37 37 38 102 114 114 112 114 115
309 304 301 302 305 308 303 299 301 304 306 308 307 306 302 301 299 287 282 277 282 295 298 290 295 312 346 358 8 10 19 26 66 101 112 114 103 98
314 312 310 313 314 313 309 300 299 305 306 307 308 308 309 312 312 305 292 274 270 273 283 296 304 313 279 320 343 352 5 34 57 81 102 110 106 110
313 315 319 321 322 321 317 313 312 314 314 316 317 320 323 323 324 330 331 321 281 279 288 294 295 297 319 338 328 357 20 40 59 77 94 93 97 102
317 319 322 324 326 327 327 323 324 324 322 320 321 323 324 320 319 332 355 16 31 21 9 11 42 46 54 64 25 18 18 19 41 64 82 92 102 95
325 322 324 325 326 327 331 332 330 325 324 322 323 324 327 332 341 351 3 16 39 32 29 34 48 70 71 63 81 62 36 34 30 43 71 71 63 68
323 322 329 333 339 340 336 333 332 332 337 334 331 335 340 351 1 4 11 25 49 49 40 36 50 62 63 64 73 64 61 59 54 58 73 73 56 60
331 332 335 334 334 335 333 332 333 335 333 331 334 337 342 356 9 13 24 42 64 56 47 39 49 56 55 44 32 65 63 58 49 47 66 78 59 42
340 335 332 329 327 325 326 330 334 332 331 334 336 339 348 2 15 21 29 40 54 55 40 25 23 60 80 60 24 22 52 65 61 59 57 70 71 40
343 334 331 329 327 328 331 333 333 337 341 339 342 349 2 14 23 26 34 39 46 52 45 30 24 45 85 90 63 21 25 54 77 71 59 63 57 45
336 333 330 330 331 332 331 332 334 339 342 347 357 7 13 24 31 33 39 38 44 61 63 38 2 6 39 77 79 51 31 36 60 82 70 72 64 48
331 329 329 329 330 329 327 331 342 348 352 1 9 12 19 30 38 40 43 42 53 65 64 41 21 31 57 82 87 73 51 43 47 54 56 68 95 79
327 326 326 328 327 329 329 330 334 338 343 360 18 19 20 26 34 44 44 44 66 74 70 57 46 53 63 80 88 81 67 57 54 57 50 47 62 69
Height
1452 1450 1448 1446 1444 1442 1440 1437 1434 1425 1417 1415 1414 1412 1410 1407 1404 1400 1397 1394 1392 1389 1388 1386 1385 1384 1383 1383 1384 1384 1384 1385 1386 1387 1388 1390 1392 1394
1447 1444 1442 1440 1437 1435 1433 1431 1429 1425 1415 1409 1408 1406 1404 1401 1398 1394 1390 1387 1384 1382 1380 1378 1377 1376 1375 1375 1375 1376 1376 1377 1378 1380 1381 1383 1384 1387
1441 1439 1436 1434 1431 1429 1427 1425 1423 1420 1413 1405 1404 1401 1398 1394 1390 1387 1383 1380 1376 1374 1372 1370 1369 1368 1367 1367 1367 1368 1369 1370 1371 1373 1374 1376 1378 1381
1435 1433 1430 1428 1425 1423 1421 1418 1416 1414 1410 1402 1397 1395 1392 1389 1384 1380 1377 1374 1370 1366 1364 1362 1360 1359 1359 1359 1360 1361 1362 1363 1364 1366 1368 1370 1372 1374
1429 1427 1424 1422 1419 1417 1415 1412 1410 1408 1405 1399 1393 1389 1386 1383 1379 1375 1371 1367 1364 1359 1356 1354 1353 1352 1352 1352 1352 1353 1355 1356 1358 1360 1362 1364 1366 1368
1424 1421 1419 1417 1414 1412 1409 1407 1404 1401 1398 1394 1389 1384 1381 1378 1375 1370 1365 1362 1358 1354 1350 1347 1346 1346 1346 1346 1346 1347 1348 1350 1352 1354 1356 1358 1361 1363
1418 1416 1413 1411 1409 1407 1404 1401 1399 1396 1392 1388 1384 1379 1376 1373 1370 1366 1362 1357 1353 1350 1346 1343 1341 1341 1341 1341 1341 1342 1343 1345 1347 1349 1351 1353 1355 1358
1412 1410 1408 1405 1403 1400 1398 1396 1394 1391 1387 1383 1379 1375 1372 1369 1366 1363 1359 1354 1349 1348 1344 1340 1339 1337 1338 1337 1338 1339 1340 1342 1343 1345 1346 1349 1351 1354
1408 1405 1402 1400 1398 1395 1392 1390 1387 1385 1383 1380 1375 1371 1368 1365 1362 1358 1355 1352 1348 1346 1343 1339 1337 1336 1336 1336 1336 1336 1338 1339 1340 1341 1343 1345 1348 1350
1403 1400 1398 1395 1392 1390 1386 1383 1380 1378 1376 1374 1370 1367 1364 1361 1358 1356 1352 1349 1346 1344 1343 1339 1337 1336 1335 1335 1335 1336 1337 1337 1338 1339 1341 1343 1346 1348
1399 1396 1393 1390 1388 1386 1382 1378 1375 1372 1370 1368 1366 1362 1359 1357 1355 1352 1349 1347 1343 1341 1341 1339 1337 1335 1334 1334 1335 1336 1336 1336 1337 1338 1339 1342 1344 1346
1394 1392 1389 1387 1384 1381 1378 1374 1370 1367 1365 1362 1360 1357 1354 1352 1350 1348 1347 1345 1342 1341 1340 1339 1337 1336 1334 1334 1335 1335 1335 1335 1336 1337 1338 1340 1342 1344
1390 1387 1385 1383 1380 1377 1374 1371 1367 1365 1362 1359 1355 1353 1350 1348 1346 1344 1343 1343 1341 1340 1340 1339 1337 1335 1335 1334 1334 1335 1334 1334 1335 1337 1338 1340 1342 1344
1388 1385 1382 1379 1376 1373 1370 1367 1365 1362 1359 1356 1352 1350 1347 1345 1343 1342 1341 1340 1340 1339 1338 1338 1336 1335 1334 1334 1334 1334 1335 1335 1336 1337 1339 1340 1342 1344
1386 1382 1379 1376 1373 1369 1366 1364 1362 1359 1356 1353 1351 1348 1346 1344 1342 1340 1339 1339 1338 1338 1338 1337 1337 1336 1335 1334 1334 1335 1335 1337 1338 1339 1340 1341 1342 1343
1383 1380 1377 1374 1371 1367 1365 1362 1360 1358 1355 1353 1350 1348 1346 1344 1342 1340 1339 1338 1337 1337 1338 1337 1337 1337 1336 1336 1336 1336 1337 1338 1339 1340 1341 1342 1343 1344
1381 1377 1374 1371 1368 1366 1363 1361 1359 1357 1355 1353 1350 1348 1346 1344 1342 1341 1340 1339 1337 1337 1337 1338 1338 1338 1338 1338 1338 1338 1339 1339 1340 1341 1342 1343 1344 1345
1379 1376 1373 1370 1367 1365 1362 1360 1358 1357 1355 1353 1351 1349 1347 1345 1343 1342 1341 1339 1339 1338 1338 1339 1339 1338 1339 1340 1341 1341 1341 1342 1343 1343 1344 1344 1346 1348
1377 1375 1372 1369 1367 1365 1362 1360 1358 1357 1355 1353 1351 1350 1348 1346 1345 1343 1342 1341 1341 1340 1341 1341 1341 1340 1340 1341 1344 1345 1344 1344 1345 1345 1346 1347 1347 1349
1376 1374 1372 1369 1367 1365 1362 1360 1359 1357 1355 1353 1352 1351 1349 1348 1346 1345 1344 1343 1343 1342 1342 1343 1343 1343 1343 1344 1345 1346 1347 1347 1347 1347 1348 1349 1350 1352
1375 1373 1371 1369 1367 1365 1363 1361 1359 1357 1356 1354 1353 1352 1350 1349 1348 1347 1346 1345 1345 1344 1344 1345 1345 1346 1346 1346 1347 1348 1349 1350 1350 1350 1351 1351 1352 1353
1375 1373 1371 1369 1367 1365 1363 1361 1359 1358 1356 1355 1354 1353 1352 1351 1349 1349 1348 1347 1347 1347 1346 1347 1348 1348 1349 1348 1349 1350 1352 1353 1354 1354 1354 1355 1355 1355
1374 1372 1370 1368 1366 1365 1363 1361 1360 1358 1357 1356 1355 1354 1353 1352 1351 1350 1350 1349 1349 1349 1349 1349 1350 1351 1351 1352 1352 1353 1355 1356 1357 1357 1358 1358 1359 1359